• en Suisse
  • Liste des pays
  • À 7 jours
  • Température de l'eau
  • Carte satellitaire
  • Carte météo
  • Widgets météo
  • user-avatar
    Se connecter

    Météo par heure à Bergen

    Ce jour, 19 Juillet, Jeudi

    Heure Température Précipitation Vent Pression Humidité
    00:00 +13°C° 0 mm 1 m/s 757 mmHg 96%
    01:00 +13°C° 0 mm 1 m/s 757 mmHg 96%
    02:00 +13°C° 0 mm 1 m/s 757 mmHg 96%
    03:00 +13°C° 0 mm 1 m/s 757 mmHg 96%
    04:00 +14°C° 0 mm 1 m/s 757 mmHg 93%
    05:00 +15°C° 0 mm 2 m/s 757 mmHg 90%
    06:00 +16°C° 0 mm 1 m/s 757 mmHg 86%
    07:00 +18°C° 0 mm 1 m/s 757 mmHg 80%
    08:00 +19°C° 0 mm 1 m/s 757 mmHg 73%
    09:00 +19°C° 0 mm 2 m/s 757 mmHg 67%
    10:00 +19°C° 0 mm 2 m/s 757 mmHg 62%
    11:00 +20°C° 0 mm 2 m/s 757 mmHg 58%
    12:00 +21°C° 0 mm 3 m/s 756 mmHg 53%
    13:00 +21°C° 0 mm 3 m/s 756 mmHg 53%
    14:00 +21°C° 0 mm 3 m/s 756 mmHg 54%
    15:00 +21°C° 0 mm 3 m/s 756 mmHg 54%
    16:00 +21°C° 0 mm 3 m/s 756 mmHg 57%
    17:00 +20°C° 0 mm 3 m/s 755 mmHg 60%
    18:00 +19°C° 0 mm 3 m/s 755 mmHg 62%
    19:00 +18°C° 0 mm 3 m/s 755 mmHg 70%
    20:00 +16°C° 0 mm 2 m/s 755 mmHg 78%
    21:00 +14°C° 0 mm 2 m/s 755 mmHg 86%
    22:00 +14°C° 0 mm 1 m/s 755 mmHg 87%
    23:00 +13°C° 0 mm 1 m/s 755 mmHg 88%

    Demain, 20 Juillet, Vendredi

    Heure Température Précipitation Vent Pression Humidité
    00:00 +13°C° 0 mm 1 m/s 755 mmHg 90%
    01:00 +12°C° 0 mm 0 m/s 754 mmHg 90%
    02:00 +12°C° 0 mm 0 m/s 754 mmHg 90%
    03:00 +11°C° 0 mm 0 m/s 754 mmHg 90%
    04:00 +14°C° 0 mm 1 m/s 753 mmHg 84%
    05:00 +16°C° 0 mm 1 m/s 753 mmHg 77%
    06:00 +18°C° 0 mm 1 m/s 753 mmHg 70%
    07:00 +19°C° 0 mm 1 m/s 753 mmHg 64%
    08:00 +20°C° 0 mm 2 m/s 753 mmHg 58%
    09:00 +21°C° 0 mm 2 m/s 753 mmHg 52%
    10:00 +22°C° 0 mm 3 m/s 752 mmHg 50%
    11:00 +22°C° 0 mm 3 m/s 752 mmHg 49%
    12:00 +24°C° 0 mm 3 m/s 752 mmHg 47%
    13:00 +24°C° 0 mm 3 m/s 752 mmHg 48%
    14:00 +22°C° 0 mm 3 m/s 752 mmHg 50%
    15:00 +22°C° 0 mm 3 m/s 751 mmHg 51%
    16:00 +22°C° 0 mm 3 m/s 751 mmHg 54%
    17:00 +21°C° 0 mm 2 m/s 751 mmHg 58%
    18:00 +20°C° 0 mm 2 m/s 751 mmHg 61%
    19:00 +19°C° 0 mm 2 m/s 751 mmHg 70%
    20:00 +18°C° 0 mm 1 m/s 751 mmHg 78%
    21:00 +15°C° 0 mm 1 m/s 751 mmHg 87%
    22:00 +15°C° 0 mm 1 m/s 751 mmHg 89%
    23:00 +15°C° 0 mm 2 m/s 751 mmHg 90%

    Après-demain, 21 Juillet, Samedi

    Heure Température Précipitation Vent Pression Humidité
    00:00 +14°C° 0 mm 2 m/s 751 mmHg 92%
    01:00 +14°C° 0,1 mm 2 m/s 751 mmHg 92%
    02:00 +15°C° 0,1 mm 2 m/s 751 mmHg 93%
    03:00 +15°C° 0,1 mm 2 m/s 751 mmHg 94%
    04:00 +15°C° 0,3 mm 2 m/s 750 mmHg 93%
    05:00 +15°C° 0,3 mm 2 m/s 750 mmHg 93%
    06:00 +16°C° 0,3 mm 2 m/s 750 mmHg 92%
    07:00 +16°C° 0,4 mm 2 m/s 750 mmHg 91%
    08:00 +16°C° 0,4 mm 2 m/s 750 mmHg 90%
    09:00 +16°C° 0,4 mm 2 m/s 750 mmHg 89%
    10:00 +16°C° 0,3 mm 2 m/s 750 mmHg 89%
    11:00 +16°C° 0,3 mm 2 m/s 750 mmHg 89%
    12:00 +16°C° 0,3 mm 1 m/s 750 mmHg 89%
    13:00 +16°C° 0,1 mm 1 m/s 750 mmHg 90%
    14:00 +16°C° 0,1 mm 1 m/s 750 mmHg 91%
    15:00 +16°C° 0,1 mm 2 m/s 750 mmHg 92%
    16:00 +16°C° 0,1 mm 2 m/s 750 mmHg 93%
    17:00 +16°C° 0,1 mm 2 m/s 750 mmHg 93%
    18:00 +16°C° 0,1 mm 2 m/s 750 mmHg 94%
    19:00 +16°C° 0,1 mm 2 m/s 751 mmHg 95%
    20:00 +16°C° 0,1 mm 2 m/s 751 mmHg 96%
    21:00 +16°C° 0,1 mm 2 m/s 751 mmHg 97%
    22:00 +15°C° 0 mm 2 m/s 751 mmHg 97%
    23:00 +15°C° 0 mm 2 m/s 751 mmHg 97%

    22 Juillet, Dimanche

    Heure Température Précipitation Vent Pression Humidité
    00:00 +15°C° 0 mm 2 m/s 751 mmHg 97%
    01:00 +15°C° 0 mm 1 m/s 751 mmHg 97%
    02:00 +15°C° 0 mm 1 m/s 751 mmHg 97%
    03:00 +15°C° 0 mm 1 m/s 751 mmHg 96%
    04:00 +15°C° 0 mm 1 m/s 751 mmHg 95%
    05:00 +15°C° 0 mm 2 m/s 751 mmHg 93%
    06:00 +15°C° 0 mm 2 m/s 751 mmHg 92%
    07:00 +16°C° 0 mm 2 m/s 751 mmHg 86%
    08:00 +17°C° 0 mm 3 m/s 751 mmHg 81%
    09:00 +18°C° 0 mm 3 m/s 750 mmHg 76%
    10:00 +18°C° 0,2 mm 4 m/s 750 mmHg 75%
    11:00 +18°C° 0,2 mm 4 m/s 750 mmHg 74%
    12:00 +18°C° 0,2 mm 4 m/s 750 mmHg 73%
    13:00 +17°C° 0,5 mm 4 m/s 750 mmHg 78%
    14:00 +17°C° 0,5 mm 4 m/s 750 mmHg 83%
    15:00 +15°C° 0,5 mm 5 m/s 750 mmHg 88%
    16:00 +15°C° 0,5 mm 4 m/s 750 mmHg 89%
    17:00 +15°C° 0,5 mm 4 m/s 750 mmHg 89%
    18:00 +15°C° 0,5 mm 4 m/s 750 mmHg 90%
    19:00 +15°C° 1,2 mm 4 m/s 751 mmHg 91%
    20:00 +15°C° 1,2 mm 4 m/s 751 mmHg 93%
    21:00 +15°C° 1,2 mm 4 m/s 751 mmHg 95%
    22:00 +15°C° 0,9 mm 4 m/s 751 mmHg 95%
    23:00 +15°C° 0,9 mm 4 m/s 751 mmHg 96%

    23 Juillet, Lundi

    Heure Température Précipitation Vent Pression Humidité
    00:00 +15°C° 0,9 mm 5 m/s 751 mmHg 96%
    01:00 +15°C° 1,2 mm 4 m/s 751 mmHg 96%
    02:00 +15°C° 1,2 mm 4 m/s 750 mmHg 97%
    03:00 +15°C° 1,2 mm 4 m/s 750 mmHg 97%
    04:00 +15°C° 2 mm 4 m/s 750 mmHg 97%
    05:00 +17°C° 2 mm 4 m/s 750 mmHg 97%
    06:00 +17°C° 2 mm 3 m/s 750 mmHg 97%
    07:00 +17°C° 1 mm 3 m/s 750 mmHg 97%
    08:00 +17°C° 1 mm 2 m/s 750 mmHg 98%
    09:00 +18°C° 1 mm 1 m/s 751 mmHg 98%
    10:00 +18°C° 0,2 mm 1 m/s 751 mmHg 97%
    11:00 +17°C° 0,2 mm 2 m/s 751 mmHg 96%
    12:00 +17°C° 0,2 mm 2 m/s 751 mmHg 95%
    13:00 +19°C° 0,4 mm 1 m/s 751 mmHg 94%
    14:00 +19°C° 0,4 mm 1 m/s 751 mmHg 94%
    15:00 +19°C° 0,4 mm 1 m/s 751 mmHg 93%
    16:00 +19°C° 0,1 mm 1 m/s 751 mmHg 92%
    17:00 +19°C° 0,1 mm 1 m/s 750 mmHg 90%
    18:00 +19°C° 0,1 mm 1 m/s 750 mmHg 89%
    19:00 +19°C° 0,2 mm 1 m/s 751 mmHg 92%
    20:00 +18°C° 0,2 mm 1 m/s 751 mmHg 94%
    21:00 +15°C° 0,2 mm 0 m/s 751 mmHg 97%
    22:00 +16°C° 0,2 mm 1 m/s 751 mmHg 97%
    23:00 +16°C° 0,2 mm 1 m/s 751 mmHg 97%

    24 Juillet, Mardi

    Heure Température Précipitation Vent Pression Humidité
    00:00 +16°C° 0,2 mm 1 m/s 751 mmHg 98%
    01:00 +16°C° 0,5 mm 1 m/s 750 mmHg 97%
    02:00 +16°C° 0,5 mm 2 m/s 750 mmHg 97%
    03:00 +16°C° 0,5 mm 2 m/s 750 mmHg 97%
    04:00 +17°C° 0,7 mm 2 m/s 750 mmHg 96%
    05:00 +17°C° 0,7 mm 2 m/s 750 mmHg 95%
    06:00 +17°C° 0,7 mm 2 m/s 750 mmHg 93%
    07:00 +18°C° 0,6 mm 3 m/s 750 mmHg 90%
    08:00 +18°C° 0,6 mm 3 m/s 750 mmHg 88%
    09:00 +19°C° 0,6 mm 3 m/s 750 mmHg 85%
    10:00 +19°C° 0,4 mm 3 m/s 751 mmHg 84%
    11:00 +19°C° 0,4 mm 3 m/s 751 mmHg 83%
    12:00 +20°C° 0,4 mm 3 m/s 751 mmHg 82%
    13:00 +19°C° 0,2 mm 3 m/s 751 mmHg 81%
    14:00 +19°C° 0,2 mm 2 m/s 751 mmHg 79%
    15:00 +19°C° 0,2 mm 2 m/s 752 mmHg 77%
    16:00 +19°C° 0,1 mm 2 m/s 752 mmHg 78%
    17:00 +19°C° 0,1 mm 2 m/s 752 mmHg 78%
    18:00 +19°C° 0,1 mm 1 m/s 752 mmHg 78%
    19:00 +19°C° 0,1 mm 1 m/s 752 mmHg 82%
    20:00 +18°C° 0,1 mm 1 m/s 753 mmHg 86%
    21:00 +16°C° 0,1 mm 1 m/s 753 mmHg 90%
    22:00 +16°C° 0,1 mm 1 m/s 753 mmHg 90%
    23:00 +15°C° 0,1 mm 1 m/s 754 mmHg 90%
    Voir plus